Regional Weather Roundup
Issued by NWS

Home | Current Version | Previous Version | Text Only | Print | Product List | Glossary On
Versions: 1 2 3 4 5 6 7 8 9 10 11 12 13 14 15 16 17 18 19 20 21 22 23 24 25 26 27 28 29 30 31 32 33 34 35 36 37 38 39 40 41 42 43 44 45 46 47 48 49 50
000
ASCA44 KEWX 101020
RWRMX

LATIN AMERICA AND CARIBBEAN REGIONAL WEATHER ROUNDUP
NATIONAL WEATHER SERVICE AUSTIN/SAN ANTONIO TX
400 AM CST WED FEB 10 2016

NOTE: "FAIR" INDICATED FEW OR NO CLOUDS BELOW 12,000 FEET WITH NO
SIGNIFICANT WEATHER AND/OR OBSTRUCTIONS TO VISIBILITY.

BAJA CALIFORNIA

CITY           SKY/WX    TMP DP  RH WIND       PRES   REMARKS
TIJUANA        CLEAR     63  25  23 SE7       30.14S

NORTHWESTERN MEXICO

CITY           SKY/WX    TMP DP  RH WIND       PRES   REMARKS

NORTHEASTERN MEXICO

CITY           SKY/WX    TMP DP  RH WIND       PRES   REMARKS
MONTERREY      CLEAR     46  23  39 NW6       30.31F WCI  43

WESTERN MEXICO

CITY           SKY/WX    TMP DP  RH WIND       PRES   REMARKS
GUADALAJARA    MOCLDY    45  34  65 CALM      30.29S
MAZATLAN       CLEAR     63  61  94 CALM      30.02F
P. VALLARTA    MOCLDY    68  64  88 CALM      30.01S
ZACATECAS      MOCLDY    45  27  49 CALM      30.39

CENTRAL MEXICO

CITY           SKY/WX    TMP DP  RH WIND       PRES   REMARKS
MEXICO CITY    CLOUDY    45  37  76 E5        30.40S WCI  42
S. LUIS POTOSI CLEAR     36  30  80 CALM      30.42F
TOLUCA         CLOUDY    43  36  75 NW3       30.42S

SOUTHERN MEXICO

CITY           SKY/WX    TMP DP  RH WIND       PRES   REMARKS
ACAPULCO       MOCLDY    77  72  83 N2        29.96F
VERACRUZ         N/A    N/A N/A N/A MISG        N/A

YUCATAN PENINSULA

CITY           SKY/WX    TMP DP  RH WIND       PRES   REMARKS
CANCUN         PTCLDY    57  55  94 CALM      30.22R
COZUMEL        CLEAR     63  57  82 NW14      30.23R
MERIDA         MOCLDY    57  52  82 CALM      30.26R
TAPACHULA      PTCLDY    75  63  64 CALM      29.95R
VILLAHERMOSA   PTCLDY    70  66  88 CALM      30.30

CENTRAL AMERICA

CITY           SKY/WX    TMP DP  RH WIND       PRES   REMARKS

CARIBBEAN

CITY           SKY/WX    TMP DP  RH WIND       PRES   REMARKS
ARUBA          PTCLDY    79  73  83 E23G35    29.92R HAZE
CURACAO        MOCLDY    79  72  78 SE16      29.97S
KINGSTON       PTCLDY    77  70  78 N13       30.00R
NASSAU         MOCLDY    70  45  40 W9G21     30.11S
SAN JUAN       PTCLDY    75  70  83 CALM      30.07R
SANTO DOMINGO  PTCLDY    70  70 100 NE7       30.03R
ST. CROIX      PTCLDY    79  70  73 E13       30.07R
ST. KITTS      PTCLDY    77  70  78 E13       30.06
ST. MAARTEN    PTCLDY    79  70  73 E14       30.06S
ST. THOMAS     PTCLDY    75  72  88 E7        30.07R

$$




USA.gov is the U.S. government's official web portal to all federal, state and local government web resources and services.